Regional Weather Roundup
Issued by NWS Jackson, KY

Home | Current Version | Previous Version | Text Only | Print | Product List | Glossary On
Versions: 1 2 3 4 5 6 7 8 9 10 11 12 13 14 15 16 17 18 19 20 21 22 23 24 25 26 27 28 29 30 31 32 33 34 35 36 37 38 39 40 41 42 43 44 45 46 47 48 49 50
000
ASUS43 KJKL 220019
RWRJKL

EAST KENTUCKY HOURLY WEATHER ROUNDUP
NATIONAL WEATHER SERVICE JACKSON KY
800 PM EDT THU AUG 21 2014

NOTE: "FAIR" INDICATES FEW OR NO CLOUDS BELOW 12,000 FEET WITH
NO SIGNIFICANT WEATHER AND/OR OBSTRUCTIONS TO VISIBILITY.

* THESE REPORTS ARE NOT UNDER NWS QUALITY CONTROL AND MAY NOT
  REPORT WEATHER SUCH AS PRECIPITATION AND FOG.

KYZ079-080-083-085-087-088-110-112-115-119-120-220100
...EASTERN KENTUCKY...

CITY           SKY/WX    TMP DP  RH WIND       PRES   REMARKS
JACKSON        MOCLDY    71  69  93 CALM      30.09F FOG
6HR MIN TEMP:  70; 6HR MAX TEMP:  87; 6HR PCP:  0.81;

LONDON         MOCLDY    84  71  65 SW5       30.09F
6HR MIN TEMP:  84; 6HR MAX TEMP:  89;

SOMERSET*      MOCLDY    82  70  65 SW3       30.08S
MONTICELLO*    PTCLDY    84  76  77 CALM      30.09S HX  92
6HR MIN TEMP:  84; 6HR MAX TEMP:  90;

WILLIAMSBURG*  CLEAR     82  73  74 CALM      30.10S
MIDDLESBORO*   PTCLDY    82  73  74 CALM      30.11R
6HR MIN TEMP:  81; 6HR MAX TEMP:  90;

HARLAN APT*    CLOUDY    73  68  83 MISG      30.13S
BLACK MTN*       N/A     66  63  88 SW7         N/A
PIKEVILLE APT* MOCLDY    70  68  94 S3        30.10F FOG
BIG SANDY*     MOCLDY    71  70  96 S5        30.09F
MOREHEAD APT*  PTCLDY    75  72  88 SE5       30.07F
ASHLAND*       MOCLDY    75  72  88 CALM      30.02F
$$

KYZ035-036-041-042-044-050-067-078-099-220100
...CENTRAL KENTUCKY...

CITY           SKY/WX    TMP DP  RH WIND       PRES   REMARKS
MT STERLING*   MOCLDY    77  72  83 S5        30.06F
FLEMING/MASON* CLOUDY    77  72  83 S6        30.05F
DANVILLE*      PTCLDY    82  72  69 SW5       30.06F
RICHMOND*      PTCLDY    82  72  69 CALM      30.05F
LEXINGTON      MOCLDY    84  72  67 S6        30.03F
6HR MIN TEMP:  82; 6HR MAX TEMP:  88; 6HR PCP:  0.01;

FRANKFORT      PTCLDY    83  73  72 SW7       30.01F
6HR MIN TEMP:  80; 6HR MAX TEMP:  87; 6HR PCP: TRACE;

$$

KYZ091>093-OHZ055-061-077-WVZ005-015-034-035-042-220100
...SOUTHERN OHIO/WEST VIRGINIA...

CITY           SKY/WX    TMP DP  RH WIND       PRES   REMARKS
COVINGTON      MOCLDY    80  74  81 S5        30.01F
COLUMBUS       MOCLDY    75  68  78 SW3       30.03S
DAYTON         PTCLDY    77  71  82 S7        30.02F
WILMINGTON     PTCLDY    75  71  87 S3        30.03F FOG
HUNTINGTON     PTCLDY    73  71  93 S5        30.05F
CHARLESTON     CLOUDY    72  72 100 NE3       30.08R FOG
PINEVILLE*     CLOUDY    72  72 100 MISG      30.17F
BECKLEY        CLOUDY    69  66  90 SW7       30.15F
BLUEFIELD      CLOUDY    70  66  87 SW9       30.19F
$$

VAZ002-007-008-TNZ017-027-036-066-071-220100
...SOUTHWEST VIRGINIA/EAST TENNESSEE...

CITY           SKY/WX    TMP DP  RH WIND       PRES   REMARKS
WISE*          CLOUDY    68  68 100 S6        30.21F
JONESVILLE*      N/A     82  75  78 CALM      30.14S
ABINGDON*      LGT RAIN  75  69  83 N6        30.18S
BRISTOL        CLOUDY    78  73  84 NW3       30.13F
KNOXVILLE      MOCLDY    83  71  67 SW6       30.09S
OAK RIDGE      CLEAR     85  73  67 SE3       30.10S HX  91
CROSSVILLE     CLEAR     79  70  74 CALM      30.16S
NASHVILLE      PTCLDY    88  71  57 SW3       30.05S HX  94
$$

...KEY TO REMARKS...
VSB - VISIBILITY IN MILES
WCI - WIND CHILL INDEX
HX  - HEAT INDEX

$$


USA.gov is the U.S. government's official web portal to all federal, state and local government web resources and services.